Flag for U.S.A. Weather past 2 weeks in Key West, Florida, U.S.A.

Now
84 °F

Clear.


Feels Like: 92 °F
Forecast: 80 / 88 °F
Wind: 5 mph from East

Location: Key West International Airport

Current Time: Oct 2, 2014 at 12:35:08 AM

Latest Report: Oct 1, 2014 at 11:53 PM


Visibility: 10 mi

Pressure: 30.00 "Hg

Humidity: 74%

Dew point: 75 °F

Location of Key WestLocation

Historic Weather in Key West — Graph

°F

Key West temperature yesterday

Maximum temperature yesterday: 88 °F (at 2:53 PM)
Minimum temperature yesterday: 82 °F (at 12:53 AM)
Average temperature yesterday: 85 °F

Past Weeks' High & Low Weather Summary

 TemperatureHumidityPressure
High90 °F (Sep 17, 4:53 PM)96% (Sep 24, 7:57 AM)30.05 "Hg (Sep 24, 7:57 AM)
Low74 °F (Sep 23, 6:53 AM)59% (Sep 17, 4:53 PM)29.85 "Hg (Sep 29, 4:53 PM)
Average84 °F75%29.94 "Hg
* Reported Sep 16 10:53 PM — Oct 1 10:53 PM, Key West, Weather by CustomWeather, © 2014

Note: Actual official high and low records may vary slightly from our data, if they occured in-between our weather recording intervals... More about our weather records

Advertising

Key West weather history for previous 24 hours

 ConditionsComfort  
Time TempWeatherWind HumidityBarometerVisibility
10:53 PM
Oct 1
84 °FClear.3 mph74%30.00 "Hg10 mi
9:53 PM84 °FClear.3 mph74%29.98 "Hg10 mi
8:53 PM85 °FClear.5 mph75%29.98 "Hg10 mi
7:53 PM86 °FSunny.No wind70%29.96 "Hg10 mi
6:53 PM87 °FSunny.6 mph69%29.94 "Hg10 mi
5:53 PM87 °FPassing clouds.7 mph69%29.92 "Hg10 mi
4:53 PM86 °FPartly sunny.3 mph75%29.90 "Hg10 mi
3:53 PM87 °FSunny.9 mph72%29.91 "Hg10 mi
2:53 PM88 °FSunny.9 mph70%29.93 "Hg10 mi
1:53 PM87 °FSunny.9 mph72%29.94 "Hg10 mi
12:53 PM87 °FSunny.8 mph72%29.96 "Hg10 mi
11:53 AM87 °FPassing clouds.8 mph72%29.97 "Hg10 mi
10:53 AM86 °FPassing clouds.7 mph75%29.97 "Hg10 mi
9:53 AM85 °FScattered clouds.9 mph77%29.96 "Hg10 mi
8:53 AM84 °FPassing clouds.8 mph80%29.95 "Hg10 mi
7:53 AM83 °FPassing clouds.7 mph79%29.93 "Hg10 mi
6:53 AM84 °FClear.6 mph72%29.91 "Hg10 mi
5:53 AM84 °FPassing clouds.7 mph74%29.90 "Hg10 mi
4:53 AM84 °FPassing clouds.6 mph74%29.89 "Hg10 mi
3:53 AM83 °FPassing clouds.5 mph74%29.89 "Hg10 mi
2:53 AM83 °FClear.No wind74%29.89 "Hg10 mi
1:53 AM83 °FClear.No wind74%29.90 "Hg10 mi
12:53 AM82 °FClear.No wind79%29.90 "Hg10 mi
Weather by CustomWeather, © 2014

See weather overviewHow to use our weather pages